x

8729108 - Panama City, Fl (pacf1) Weather Station

10:54am - Fri 24th Mar 2017 All times are CDT. -5 hours from GMT.

  • Wind
    14mph, 21mph gusts
  • Sea Temp 68°f
  • Air Temp 70°f
  • Sea Pressure 1027.8mb
  • 8729108 - Panama City, Fl
  • 8729108 - Panama City, Fl

More Historic Weather Station data

Upgrade to MSW Pro to gain access to the past 30 days of data for over 8000 Wavebouys and Weather Stations around the globe.

Join Pro

Comparision Forecast

View Surf forecast
   
Fri 03/24 10:54am 14 21 mph 1027.8mb 68f 70f
10:48am 18 23 mph 1027.7mb 68f 69f
10:42am 16 24 mph 1027.7mb 68f 69f
10:36am 14 21 mph 1027.7mb 68f 69f
10:30am 15 20 mph 1027.8mb 68f 69f
10:24am 10 17 mph 1027.8mb 68f 69f
10:18am 15 22 mph 1027.8mb 68f 68f
10:12am 16 22 mph 1027.8mb 68f 68f
10:06am 11 21 mph 1027.8mb 68f 68f
10:00am 18 25 mph 1027.7mb 68f 67f
9:54am 11 23 mph 1027.8mb 68f 67f
9:48am 13 23 mph 1027.8mb 68f 67f
9:42am 17 23 mph 1027.8mb 68f 67f
9:36am 15 20 mph 1027.8mb 68f 66f
9:30am 14 21 mph 1027.9mb 68f 66f
9:24am 15 22 mph 1027.8mb 68f 66f
9:18am 15 20 mph 1028mb 68f 65f
9:12am 11 18 mph 1028mb 68f 65f
9:06am 7 16 mph 1028mb 68f 65f
9:00am 8 15 mph 1027.9mb 68f 65f
8:54am 9 17 mph 1027.9mb 68f 64f
8:48am 10 17 mph 1027.9mb 68f 63f
8:42am 11 17 mph 1027.9mb 68f 63f
8:36am 10 20 mph 1027.8mb 68f 63f
8:30am 13 18 mph 1027.7mb 68f 62f
8:24am 9 15 mph 1027.7mb 68f 62f
8:18am 8 18 mph 1027.6mb 68f 62f
8:12am 10 17 mph 1027.6mb 68f 61f
8:06am 10 16 mph 1027.6mb 68f 61f
8:00am 10 16 mph 1027.6mb 68f 61f
7:54am 10 14 mph 1027.6mb 68f 61f
7:48am 10 16 mph 1027.5mb 68f 60f
7:42am 7 14 mph 1027.4mb 68f 60f
7:36am 11 18 mph 1027.4mb 68f 60f
7:30am 9 17 mph 1027.3mb 68f 60f
7:24am 8 13 mph 1027.2mb 68f 60f
7:18am 8 14 mph 1027.2mb 68f 59f
7:12am 10 14 mph 1027.2mb 68f 59f
7:06am 8 15 mph 1027mb 68f 59f
7:00am 9 15 mph 1026.9mb 68f 59f
6:54am 5 14 mph 1026.8mb 68f 59f
6:48am 6 14 mph 1026.8mb 68f 59f
6:42am 5 10 mph 1026.7mb 68f 59f
6:36am 6 14 mph 1026.7mb 68f 59f
6:30am 6 14 mph 1026.8mb 68f 59f
6:24am 6 10 mph 1026.8mb 68f 59f
6:18am 6 13 mph 1026.7mb 68f 59f
6:12am 5 13 mph 1026.8mb 68f 59f
6:06am 6 13 mph 1026.7mb 68f 60f
6:00am 6 11 mph 1026.7mb 68f 60f
5:54am 6 14 mph 1026.7mb 68f 60f
5:48am 6 13 mph 1026.7mb 68f 60f
5:42am 6 13 mph 1026.5mb 68f 60f
5:36am 10 15 mph 1026.5mb 68f 60f
5:30am 6 10 mph 1026.4mb 68f 60f
5:24am 6 16 mph 1026.3mb 69f 60f
5:18am 10 15 mph 1026.2mb 69f 60f
5:12am 7 15 mph 1026.2mb 69f 60f
5:06am 9 14 mph 1026.1mb 69f 60f
5:00am 8 14 mph 1026mb 69f 60f
4:54am 9 14 mph 1026mb 69f 60f
4:48am 9 14 mph 1025.9mb 69f 60f
4:42am 9 16 mph 1025.9mb 69f 60f
4:36am 8 15 mph 1025.9mb 69f 61f
4:30am 8 13 mph 1025.9mb 69f 61f
4:24am 8 15 mph 1025.9mb 69f 61f
4:18am 8 15 mph 1025.9mb 69f 61f
4:12am 13 18 mph 1025.9mb 69f 61f
4:06am 11 17 mph 1025.9mb 69f 61f
4:00am 11 17 mph 1025.9mb 69f 61f
3:54am 8 13 mph 1026mb 69f 61f
3:48am 6 14 mph 1026mb 69f 62f
3:42am 9 15 mph 1026mb 69f 62f
3:36am 8 15 mph 1026mb 69f 62f
3:30am 8 14 mph 1026mb 69f 62f
3:24am 9 15 mph 1026.1mb 69f 62f
3:18am 10 15 mph 1026.1mb 69f 62f
3:12am 10 17 mph 1026.2mb 69f 62f
3:06am 10 16 mph 1026.2mb 69f 62f
3:00am 8 17 mph 1026.3mb 69f 62f
2:54am 11 17 mph 1026.2mb 69f 63f
2:48am 10 15 mph 1026.3mb 69f 63f
2:42am 6 13 mph 1026.4mb 69f 63f
2:36am 8 14 mph 1026.4mb 69f 63f
2:30am 8 14 mph 1026.5mb 69f 64f
2:24am 9 16 mph 1026.6mb 69f 64f
2:18am 9 15 mph 1026.7mb 69f 64f
2:12am 8 17 mph 1026.6mb 69f 64f
2:06am 8 13 mph 1026.6mb 69f 64f
2:00am 9 16 mph 1026.7mb 69f 64f
1:54am 9 16 mph 1026.8mb 69f 64f
1:48am 10 15 mph 1026.8mb 69f 64f
1:42am 9 14 mph 1026.8mb 69f 65f
1:36am 10 14 mph 1026.9mb 69f 65f
1:30am 9 15 mph 1027mb 69f 65f
1:24am 10 17 mph 1027mb 69f 65f
1:18am 10 16 mph 1027mb 69f 65f
1:12am 8 16 mph 1027mb 69f 65f
1:06am 9 17 mph 1027mb 69f 65f
1:00am 8 15 mph 1027mb 69f 65f
12:54am 10 18 mph 1026.9mb 69f 65f
12:48am 9 16 mph 1026.9mb 69f -
12:42am 9 16 mph 1026.8mb 69f -
12:36am 8 17 mph 1026.8mb 69f -
12:30am 8 15 mph 1026.8mb 69f 66f
12:24am 11 16 mph 1026.9mb 69f 66f
12:18am 9 13 mph 1026.9mb 69f 66f
12:12am 10 16 mph 1026.9mb 69f 66f
12:06am 11 20 mph 1026.9mb 69f 67f
12:00am 13 17 mph 1026.8mb 69f 67f
Thu 03/23 11:54pm 9 20 mph 1026.8mb 69f 67f
11:48pm 14 20 mph 1026.7mb 69f 67f
11:42pm 13 21 mph 1026.7mb 69f 67f
11:36pm 8 16 mph 1026.8mb 69f 67f
11:30pm 11 16 mph 1026.8mb 69f 67f
11:24pm 10 15 mph 1026.7mb 69f 67f
11:18pm 10 17 mph 1026.7mb 69f 68f
11:12pm 11 17 mph 1026.6mb 69f 68f
11:06pm 10 18 mph 1026.7mb 68f 68f
11:00pm 14 23 mph 1026.6mb 68f 69f
10:54pm 14 18 mph 1026.6mb 68f 69f
10:48pm 8 16 mph 1026.7mb 68f 69f
10:42pm 9 15 mph 1026.7mb 68f 69f
10:36pm 10 15 mph 1026.7mb 68f 69f
10:30pm 10 17 mph 1026.8mb 68f 69f
10:24pm 13 18 mph 1026.7mb 68f 69f
10:18pm 10 15 mph 1026.7mb 68f 68f
10:12pm 8 10 mph 1026.8mb 68f 68f
10:06pm 6 9 mph 1026.8mb 68f 68f
10:00pm 3 9 mph 1026.7mb 68f 68f
9:54pm 6 10 mph 1026.8mb 68f 68f
9:48pm 6 9 mph 1026.8mb 68f 69f
9:42pm 5 8 mph 1026.7mb 68f 69f
9:36pm 5 9 mph 1026.7mb 68f 69f
9:30pm 7 10 mph 1026.5mb 68f 69f
9:24pm 6 9 mph 1026.4mb 68f 69f
9:18pm 6 10 mph 1026.3mb 68f 69f
9:12pm 7 13 mph 1026.2mb 68f 69f
9:06pm 6 10 mph 1026.1mb 68f 69f
9:00pm 6 14 mph 1026mb 68f 69f
8:54pm 7 13 mph 1025.9mb 68f 69f
8:48pm 8 13 mph 1025.9mb 68f 69f
8:42pm 6 11 mph 1025.9mb 68f 69f
8:36pm 8 10 mph 1025.8mb 68f 69f
8:30pm 7 11 mph 1025.7mb 68f 69f
8:24pm 6 10 mph 1025.6mb 68f 69f
8:18pm 7 11 mph 1025.5mb 68f 69f
8:12pm 7 11 mph 1025.5mb 68f 69f
8:06pm 6 8 mph 1025.4mb 68f 69f
8:00pm 6 8 mph 1025.3mb 68f 69f
7:54pm 7 9 mph 1025.2mb 68f 69f
7:48pm 5 9 mph 1025.2mb 68f 69f
7:42pm 6 10 mph 1025.1mb 68f 70f
7:36pm 6 9 mph 1025.1mb 68f 70f
7:30pm 6 9 mph 1025.1mb 68f 70f
7:24pm 5 9 mph 1025mb 68f 70f
7:18pm 5 11 mph 1025mb 68f 70f
7:12pm 6 9 mph 1025mb 68f 70f
7:06pm 5 8 mph 1025mb 68f 70f
7:00pm 6 10 mph 1024.8mb 68f 70f
6:54pm 6 10 mph 1024.8mb 68f 71f
6:48pm 6 10 mph 1024.8mb 68f 71f
6:42pm 6 10 mph 1024.7mb 68f 71f
6:36pm 7 10 mph 1024.6mb 68f 71f
6:30pm 6 9 mph 1024.6mb 68f 71f
6:24pm 6 9 mph 1024.6mb 68f 71f
6:18pm 5 9 mph 1024.4mb 68f 71f
6:12pm 6 9 mph 1024.3mb 68f 71f
6:06pm 6 8 mph 1024.3mb 68f 71f
6:00pm 6 9 mph 1024.3mb 68f 71f
5:54pm 6 9 mph 1024.4mb 68f 71f
5:48pm 6 10 mph 1024.5mb 68f 71f
5:42pm 5 9 mph 1024.6mb 68f 70f
5:36pm 3 9 mph 1024.5mb 68f 70f
5:30pm 7 10 mph 1024.5mb 68f 70f
5:24pm 6 10 mph 1024.5mb 68f 71f
5:18pm 6 11 mph 1024.5mb 68f 71f
5:12pm 7 11 mph 1024.4mb 68f 71f
5:06pm 7 11 mph 1024.4mb 68f 71f
5:00pm 8 11 mph 1024.4mb 68f 71f
4:54pm 5 15 mph 1024.4mb 68f 71f
4:48pm 10 15 mph 1024.3mb 68f 71f
4:42pm 8 14 mph 1024.3mb 68f 72f
4:36pm 8 16 mph 1024.3mb 68f 72f
4:30pm 8 11 mph 1024.3mb 68f 73f
4:24pm 5 13 mph 1024.2mb 68f 73f
4:18pm 7 13 mph 1024.2mb 68f 73f
4:12pm 7 13 mph 1024.2mb 68f 73f
4:06pm 6 11 mph 1024.2mb 68f 73f
4:00pm 5 10 mph 1024.2mb 68f 73f
3:54pm 5 11 mph 1024.3mb 68f 73f
3:48pm 9 15 mph 1024.3mb 68f 73f
3:42pm 9 18 mph 1024.3mb 68f 73f
3:36pm 13 18 mph 1024.2mb 68f 74f
3:30pm 11 16 mph 1024.2mb 68f 75f
3:24pm 10 17 mph 1024.2mb 68f 75f
3:18pm 11 16 mph 1024.2mb 68f 76f
3:12pm 11 17 mph 1024.2mb 68f 76f
3:06pm 9 14 mph 1024.2mb 68f 76f
3:00pm 10 14 mph 1024.2mb 68f 76f
2:54pm 8 13 mph 1024.3mb 68f 76f
2:48pm 10 16 mph 1024.3mb 68f 75f
2:42pm 9 16 mph 1024.2mb 68f 76f
2:36pm 7 15 mph 1024.3mb 68f 76f
2:30pm 8 13 mph 1024.4mb 68f 77f
2:24pm 6 11 mph 1024.5mb 68f 76f
2:18pm 7 11 mph 1024.6mb 68f 75f
2:12pm 10 15 mph 1024.6mb 68f 76f
2:06pm 5 13 mph 1024.6mb 68f 76f
2:00pm 8 11 mph 1024.7mb 68f 76f
1:54pm 7 11 mph 1024.7mb 68f 76f
1:48pm 8 11 mph 1024.8mb 68f 76f
1:42pm 5 11 mph 1024.8mb 68f 76f
1:36pm 8 11 mph 1024.8mb 68f 75f
1:30pm 6 11 mph 1024.9mb 68f 75f
1:24pm 10 14 mph 1024.9mb 68f 75f
1:18pm 8 13 mph 1024.9mb 68f 75f
1:12pm 8 13 mph 1025mb 68f 74f
1:06pm 8 15 mph 1025mb 68f 74f
1:00pm 9 13 mph 1025.1mb 68f 74f
12:54pm 10 15 mph 1025.2mb 68f 74f
12:48pm 11 15 mph 1025.2mb 68f 74f
12:42pm 9 13 mph 1025.3mb 68f 75f
12:36pm 10 14 mph 1025.3mb 68f 74f
12:30pm 9 17 mph 1025.2mb 68f 75f
12:24pm 11 17 mph 1025.2mb 68f 75f
12:18pm 10 16 mph 1025.2mb 68f 75f
12:12pm 9 14 mph 1025.2mb 68f 75f
12:06pm 8 16 mph 1025.2mb 69f 75f
12:00pm 10 13 mph 1025.3mb 69f 75f
11:54am 8 13 mph 1025.3mb 69f 75f
11:48am 9 16 mph 1025.4mb 69f 74f
11:42am 7 11 mph 1025.4mb 69f 74f
11:36am 8 15 mph 1025.4mb 69f 74f
11:30am 14 17 mph 1025.3mb 69f 73f
11:24am 10 15 mph 1025.4mb 69f 73f
11:18am 8 15 mph 1025.3mb 69f 74f
11:12am 9 13 mph 1025.3mb 69f 73f
11:06am 6 14 mph 1025.4mb 69f 73f
11:00am 7 13 mph 1025.5mb 69f 73f
10:54am 7 10 mph 1025.4mb 69f 73f
10:48am 5 13 mph 1025.4mb 69f 72f
10:42am 8 11 mph 1025.5mb 69f 72f
10:36am 5 13 mph 1025.4mb 69f 72f
10:30am 10 14 mph 1025.3mb 69f 71f
10:24am 8 13 mph 1025.3mb 69f 71f
10:18am 6 15 mph 1025.2mb 69f 71f
10:12am 6 16 mph 1025mb 69f 71f
10:06am 13 16 mph 1025mb 69f 70f
10:00am 7 17 mph 1025mb 69f 70f
9:54am 10 16 mph 1024.9mb 69f 70f
9:48am 9 17 mph 1024.9mb 69f 69f
9:42am 8 18 mph 1024.8mb 69f 69f
9:36am 10 15 mph 1024.7mb 69f 69f
9:30am 10 18 mph 1024.6mb 69f 68f
9:24am 13 17 mph 1024.4mb 69f 68f
9:18am 7 15 mph 1024.4mb 69f 68f
9:12am 6 14 mph 1024.4mb 69f 68f
9:06am 7 15 mph 1024.3mb 69f 67f
9:00am 9 18 mph 1024.3mb 69f 67f
8:54am 9 18 mph 1024.2mb 69f 66f
8:48am 8 20 mph 1024.1mb 69f 66f
8:42am 10 16 mph 1024mb 69f 66f
8:36am 10 15 mph 1024mb 69f 66f
8:30am 9 21 mph 1024mb 69f 65f
8:24am 9 15 mph 1023.9mb 69f 65f
8:18am 8 17 mph 1023.9mb 69f 65f
8:12am 9 14 mph 1023.9mb 69f 65f
8:06am 5 13 mph 1023.9mb 69f 65f
8:00am 6 15 mph 1023.9mb 69f 64f
7:54am 5 11 mph 1023.8mb 69f 64f
7:48am 7 11 mph 1023.8mb 69f 64f
7:42am 8 11 mph 1023.8mb 69f 64f
7:36am 7 11 mph 1023.7mb 69f 64f
7:30am 3 13 mph 1023.6mb 69f 64f
7:24am 6 14 mph 1023.6mb 69f 64f
7:18am 6 11 mph 1023.5mb 69f 64f
7:12am 7 10 mph 1023.5mb 69f 63f
7:06am 5 9 mph 1023.4mb 69f 64f
7:00am 6 10 mph 1023.4mb 69f 63f
6:54am 7 13 mph 1023.3mb 70f 64f
6:48am 8 9 mph 1023.2mb 70f 63f
6:42am 5 10 mph 1023.1mb 70f 64f
6:36am 5 10 mph 1023.1mb 70f 64f
6:30am 6 10 mph 1023mb 70f 64f
6:24am 3 8 mph 1022.9mb 70f 64f
6:18am 2 7 mph 1022.8mb 70f 64f
6:12am 3 8 mph 1022.7mb 70f 64f
6:06am 2 10 mph 1022.6mb 70f 64f
6:00am 6 11 mph 1022.4mb 70f 64f
5:54am 6 9 mph 1022.3mb 70f 64f
5:48am 7 14 mph 1022.2mb 70f 64f
5:42am 7 11 mph 1022.1mb 70f 64f
5:36am 7 14 mph 1022mb 70f 64f
5:30am 7 14 mph 1021.8mb 70f 64f
5:24am 8 14 mph 1021.7mb 70f 64f
5:18am 8 14 mph 1021.7mb 70f 65f
5:12am 7 15 mph 1021.6mb 70f 65f
5:06am 9 14 mph 1021.5mb 70f 65f
5:00am 8 14 mph 1021.5mb 70f 65f
4:54am 6 13 mph 1021.4mb 70f 65f
4:48am 8 13 mph 1021.4mb 70f 65f
4:42am 8 14 mph 1021.3mb 70f 65f
4:36am 8 14 mph 1021.2mb 70f 65f
4:30am 5 10 mph 1021.2mb 70f 65f
4:24am 6 13 mph 1021.2mb 70f 65f
4:18am 7 11 mph 1021.1mb 70f 65f
4:12am 7 11 mph 1021.1mb 70f 65f
4:06am 7 11 mph 1021mb 70f 65f
4:00am 8 14 mph 1020.9mb 70f 65f
3:54am 6 11 mph 1020.9mb 70f 65f
3:48am 7 10 mph 1020.9mb 70f 66f
3:42am 7 13 mph 1021mb 70f 66f
3:36am 8 13 mph 1020.9mb 70f 66f
3:30am 7 10 mph 1020.9mb 71f 66f
3:24am 6 13 mph 1020.9mb 71f 66f
3:18am 8 14 mph 1020.9mb 71f 66f
3:12am 6 14 mph 1020.9mb 71f 66f
3:06am 6 11 mph 1021mb 71f 67f
3:00am 8 13 mph 1021.1mb 71f 67f
2:54am 9 15 mph 1021.1mb 71f 67f
2:48am 8 14 mph 1021.2mb 71f 67f
2:42am 9 13 mph 1021.2mb 71f 67f
2:36am 9 14 mph 1021.2mb 71f 67f
2:30am 10 14 mph 1021.1mb 71f 67f
2:24am 10 16 mph 1021.1mb 71f 68f
2:18am 10 15 mph 1021mb 71f 68f
2:12am 13 16 mph 1021mb 71f 68f
2:06am 10 14 mph 1021.1mb 71f 68f
2:00am 11 15 mph 1021.1mb 71f 68f
1:54am 10 15 mph 1021.1mb 71f 69f
1:48am 11 15 mph 1021.2mb 71f -
1:42am 11 16 mph 1021.2mb 71f -
1:36am 10 14 mph 1021.3mb 71f -
1:30am 10 15 mph 1021.3mb 71f 69f
1:24am 13 15 mph 1021.3mb 71f 70f
1:18am 11 15 mph 1021.4mb 71f 70f
1:12am 10 14 mph 1021.3mb 71f 70f
1:06am 9 13 mph 1021.4mb 71f 70f
1:00am 9 14 mph 1021.4mb 71f 70f
12:54am 9 13 mph 1021.5mb 71f 70f
12:48am 9 14 mph 1021.5mb 71f -
12:42am 10 14 mph 1021.5mb 71f -
12:36am 9 14 mph 1021.4mb 71f -
12:30am 9 14 mph 1021.4mb 71f 71f
12:24am 10 15 mph 1021.4mb 71f 71f
12:18am 9 13 mph 1021.4mb 71f 71f
12:12am 10 13 mph 1021.4mb 71f 71f
12:06am 9 13 mph 1021.4mb 71f 71f
12:00am 8 11 mph 1021.4mb 71f 71f
Wed 03/22 11:54pm 10 13 mph 1021.4mb 71f 72f
11:48pm 9 13 mph 1021.4mb 71f 73f
11:42pm 10 14 mph 1021.3mb 71f 73f
11:36pm 9 13 mph 1021.2mb 71f 73f
11:30pm 9 15 mph 1021.2mb 71f 73f
11:24pm 10 16 mph 1021.1mb 71f 73f
11:18pm 10 16 mph 1021.1mb 71f 74f
11:12pm 11 16 mph 1021.1mb 71f 73f
11:06pm 10 15 mph 1021mb 71f 72f
11:00pm 11 15 mph 1021mb 72f 71f
10:54pm 8 11 mph 1021mb 72f 71f
10:48pm 6 9 mph 1021mb 72f 70f
10:42pm 7 10 mph 1021mb 72f 70f
10:36pm 3 6 mph 1020.9mb 72f 70f
10:30pm 3 6 mph 1020.9mb 72f 70f
10:24pm 3 5 mph 1020.9mb 72f 69f
10:18pm 2 3 mph 1020.8mb 72f 70f
10:12pm 3 5 mph 1020.7mb 72f 70f
10:06pm 2 3 mph 1020.7mb 72f 70f
10:00pm 3 5 mph 1020.6mb 72f 70f
9:54pm 5 7 mph 1020.6mb 71f 70f
9:48pm 3 7 mph 1020.5mb 71f 70f
9:42pm 5 6 mph 1020.5mb 71f 70f
9:36pm 5 11 mph 1020.4mb 71f 70f
9:30pm 5 10 mph 1020.3mb 71f 71f
9:24pm 9 10 mph 1020.4mb 71f 70f
9:18pm 7 8 mph 1019.9mb 71f 70f
9:12pm 6 7 mph 1019.8mb 71f 70f
9:06pm 5 7 mph 1019.8mb 71f 70f
9:00pm 6
mph
1019.7mb 71f 70f
8:54pm 6 7 mph 1019.7mb 71f 71f
8:48pm 7 9 mph 1019.7mb 71f 71f
8:42pm 7 8 mph 1019.6mb 71f 71f
8:36pm 5 8 mph 1019.6mb 71f 71f
8:30pm 7 8 mph 1019.5mb 71f 71f
8:24pm 7 8 mph 1019.4mb 71f 71f
8:18pm 8 9 mph 1019.3mb 71f 71f
8:12pm 8
mph
1019.3mb 71f 71f
8:06pm 8 9 mph 1019.2mb 71f 71f
8:00pm 7 8 mph 1019.2mb 71f 70f
7:54pm 7 10 mph 1019.1mb 71f 70f
7:48pm 8 11 mph 1019mb 71f 70f
7:42pm 9 11 mph 1019mb 71f 70f
7:36pm 10 11 mph 1019mb 71f 70f
7:30pm 9 10 mph 1018.9mb 71f 70f
7:24pm 7 9 mph 1018.9mb 71f 71f
7:18pm 7 8 mph 1018.9mb 71f 71f
7:12pm 7 9 mph 1018.7mb 71f 71f
7:06pm 8 10 mph 1018.7mb 71f 71f
7:00pm 9 11 mph 1018.6mb 70f 71f
6:54pm 7 10 mph 1018.6mb 70f 71f
6:48pm 8 9 mph 1018.5mb 70f 71f
6:42pm 8 9 mph 1018.4mb 70f 71f
6:36pm 7 8 mph 1018.3mb 70f 72f
6:30pm 7 8 mph 1018.3mb 70f 72f
6:24pm 7 9 mph 1018.3mb 70f 72f
6:18pm 7 10 mph 1018.3mb 70f 72f
6:12pm 8 9 mph 1018.2mb 70f 73f
6:06pm 8 10 mph 1018.1mb 70f 73f
6:00pm 10 13 mph 1018mb 70f 73f
5:54pm 9 10 mph 1017.9mb 70f 73f
5:48pm 9 10 mph 1017.9mb 70f 73f
5:42pm 9 10 mph 1017.9mb 70f 73f
5:36pm 8 9 mph 1017.9mb 70f 73f
5:30pm 6 7 mph 1017.9mb 70f 73f
5:24pm 5 6 mph 1017.9mb 70f 74f
5:18pm 5 8 mph 1017.9mb 70f 73f
5:12pm 7 9 mph 1017.9mb 69f 73f
5:06pm 8 11 mph 1017.8mb 69f 73f
5:00pm 9 11 mph 1017.9mb 69f 73f
4:54pm 10 11 mph 1017.8mb 69f 73f
4:48pm 8 13 mph 1017.8mb 69f 73f
4:42pm 10 13 mph 1017.7mb 69f 73f
4:36pm 7 10 mph 1017.8mb 69f 72f
4:30pm 9 11 mph 1017.7mb 69f 72f
4:24pm 11 14 mph 1017.6mb 69f 72f
4:18pm 13 15 mph 1017.5mb 69f 72f
4:12pm 13 15 mph 1017.5mb 69f 72f
4:06pm 11 14 mph 1017.6mb 69f 72f
4:00pm 11 14 mph 1017.6mb 69f 72f
3:54pm 14 15 mph 1017.6mb 69f 71f
3:48pm 13 15 mph 1017.6mb 69f 72f
3:42pm 11 14 mph 1017.6mb 69f 71f
3:36pm 11 13 mph 1017.7mb 69f 71f
3:30pm 10 14 mph 1017.7mb 69f 71f
3:24pm 10 14 mph 1017.7mb 69f 71f
3:18pm 10 13 mph 1017.7mb 69f 71f
3:12pm 6 7 mph 1017.7mb 69f 72f
3:06pm 6 7 mph 1017.7mb 69f 71f
3:00pm 6 7 mph 1017.7mb 69f 71f
2:54pm 7 10 mph 1017.7mb 69f 71f
2:48pm 7 9 mph 1017.7mb 69f 71f
2:42pm 9 11 mph 1017.8mb 69f 71f
2:36pm 10 11 mph 1017.8mb 69f 71f
2:30pm 9 10 mph 1017.9mb 69f 70f
2:24pm 9 10 mph 1017.9mb 69f 70f
2:18pm 9 11 mph 1017.9mb 69f 70f
2:12pm 9 11 mph 1017.9mb 69f 71f
2:06pm 10 13 mph 1017.9mb 69f 71f
2:00pm 9 11 mph 1018mb 69f 71f
1:54pm 10 11 mph 1018mb 69f 71f
1:48pm 10 13 mph 1018.1mb 69f 70f
1:42pm 11 13 mph 1018.2mb 69f 70f
1:36pm 11 13 mph 1018.3mb 68f 70f
1:30pm 11 13 mph 1018.4mb 68f 70f
1:24pm 11 13 mph 1018.5mb 68f 70f
1:18pm 11 13 mph 1018.6mb 68f 70f
1:12pm 10 13 mph 1018.7mb 68f 70f
1:06pm 13 14 mph 1018.8mb 68f 69f
1:00pm 11 13 mph 1018.9mb 68f 69f
12:54pm 13 14 mph 1018.9mb 68f 69f
12:48pm 11 13 mph 1019.1mb 68f 69f
12:42pm 13
mph
1019.2mb 68f 69f
12:36pm 10 13 mph 1019.3mb 68f 69f
12:30pm 11 14 mph 1019.3mb 68f 69f
12:24pm 11 14 mph 1019.4mb 68f 69f
12:18pm 11 14 mph 1019.4mb 68f 69f
12:12pm 13 14 mph 1019.4mb 69f 69f
12:06pm 11 14 mph 1019.5mb 69f 69f
12:00pm 13 14 mph 1019.5mb 69f 69f
11:54am 11 14 mph 1019.6mb 69f 69f
11:48am 13 14 mph 1019.6mb 69f 69f
11:42am 11 13 mph 1019.6mb 69f 69f
11:36am 10 11 mph 1019.6mb 69f 69f
11:30am 10
mph
1019.7mb 69f 69f
11:24am 9 11 mph 1019.7mb 69f 68f
11:18am 10 11 mph 1019.7mb 69f 68f
11:12am 10 11 mph 1019.7mb 69f 68f
11:06am 9 10 mph 1019.7mb 69f 69f
11:00am 9
mph
1019.7mb 69f 69f
10:54am 8 9 mph 1019.7mb 69f 71f
10:48am 8 9 mph 1019.7mb 69f 71f
10:42am 9
mph
1019.8mb 69f 70f
10:36am 8 9 mph 1019.8mb 69f 70f
10:30am 8 9 mph 1019.8mb 69f 70f
10:24am 7 8 mph 1019.8mb 69f 71f
10:18am 7 8 mph 1019.8mb 69f 70f
10:12am 6 7 mph 1019.8mb 69f 70f
10:06am 3 6 mph 1019.8mb 69f 71f
10:00am 5 6 mph 1019.8mb 69f 71f
9:54am 6 7 mph 1019.7mb 69f 71f
9:48am 6 7 mph 1019.7mb 69f 70f
9:42am 6 7 mph 1019.7mb 69f 70f
9:36am 7 8 mph 1019.6mb 69f 70f
9:30am 6 8 mph 1019.6mb 69f 70f
9:24am 7 10 mph 1019.6mb 69f 70f
9:18am 8 9 mph 1019.6mb 69f 70f
9:12am 6 8 mph 1019.5mb 69f 69f
9:06am 7 14 mph 1019.6mb 69f 69f
9:00am 7 9 mph 1019.5mb 69f 69f
8:54am 7 9 mph 1019.5mb 69f 69f
8:48am 7 9 mph 1019.5mb 69f 69f
8:42am 7 9 mph 1019.6mb 69f 68f
8:36am 6 8 mph 1019.6mb 69f 68f
8:30am 7 9 mph 1019.6mb 69f 68f
8:24am 6 8 mph 1019.5mb 69f 67f
8:18am 7 8 mph 1019.5mb 69f 67f
8:12am 8 9 mph 1019.4mb 69f 67f
8:06am 8 9 mph 1019.4mb 69f 67f
8:00am 8 10 mph 1019.3mb 69f 67f
7:54am 8 9 mph 1019.3mb 69f 67f
7:48am 8 9 mph 1019.2mb 69f 67f
7:42am 8 11 mph 1019.2mb 69f 67f
7:36am 9 10 mph 1019.1mb 69f 67f
7:30am 10 13 mph 1019mb 69f 67f
7:24am 9 10 mph 1019mb 69f 67f
7:18am 9 10 mph 1019mb 69f 67f
7:12am 9 13 mph 1019mb 69f 67f
7:06am 10 13 mph 1019mb 69f 67f
7:00am 10 13 mph 1018.9mb 69f 67f
6:54am 11 14 mph 1018.8mb 69f 67f
6:48am 11 14 mph 1018.7mb 69f 67f
6:42am 11 14 mph 1018.6mb 69f 67f
6:36am 14 15 mph 1018.5mb 70f 67f
6:30am 10 13 mph 1018.5mb 70f 68f
6:24am 13 15 mph 1018.4mb 70f 68f
6:18am 11 14 mph 1018.3mb 70f 68f
6:12am 10 14 mph 1018.3mb 70f 68f
6:06am 9 13 mph 1018.2mb 70f 68f
6:00am 10 14 mph 1018.1mb 70f 68f
5:54am 11 14 mph 1018mb 70f 68f
5:48am 11 14 mph 1018mb 70f 68f
5:42am 11 15 mph 1018mb 70f 68f
5:36am 11 14 mph 1017.9mb 70f 68f
5:30am 11 14 mph 1017.9mb 70f 68f
5:24am 13 15 mph 1017.9mb 70f 68f
5:18am 13 16 mph 1017.9mb 70f 68f
5:12am 10 15 mph 1017.9mb 70f 68f
5:06am 11 14 mph 1017.9mb 70f 68f
5:00am 13 14 mph 1017.8mb 70f 68f
4:54am 11 14 mph 1017.8mb 70f 68f
4:48am 13 15 mph 1017.9mb 70f 68f
4:42am 13 14 mph 1017.9mb 70f 68f
4:36am 13 15 mph 1017.9mb 70f 68f
4:30am 13 15 mph 1017.9mb 70f 68f
4:24am 11 17 mph 1017.9mb 70f 68f
4:18am 13 14 mph 1017.9mb 70f 68f
4:12am 10 16 mph 1017.9mb 70f 68f
4:06am 11 14 mph 1017.9mb 70f 68f
4:00am 10 13 mph 1017.9mb 70f 68f
3:54am 10 14 mph 1017.9mb 70f 68f
3:48am 11 14 mph 1017.9mb 70f 68f
3:42am 11 14 mph 1018mb 70f 68f
3:36am 10 16 mph 1017.9mb 70f 68f
3:30am 11 14 mph 1018mb 70f 68f
3:24am 11 14 mph 1018.1mb 70f 68f
3:18am 8 10 mph 1018.1mb 70f 68f
3:12am 9 13 mph 1018.1mb 70f 68f
3:06am 9 11 mph 1018.2mb 70f 68f
3:00am 9 14 mph 1018.2mb 70f 68f
2:54am 10 13 mph 1018.2mb 70f 68f
2:48am 9 11 mph 1018.3mb 70f 68f
2:42am 9 14 mph 1018.4mb 70f 68f
2:36am 10 13 mph 1018.4mb 70f 68f
2:30am 10 14 mph 1018.5mb 70f 68f
2:24am 11 14 mph 1018.6mb 70f 68f
2:18am 10 14 mph 1018.7mb 70f 68f
2:12am 10 13 mph 1018.8mb 70f 68f
2:06am 10 13 mph 1018.8mb 70f 68f
2:00am 10 13 mph 1018.8mb 70f 68f
1:54am 10 11 mph 1018.9mb 70f 68f
1:48am 10 13 mph 1018.9mb 70f -
1:42am 10 13 mph 1018.9mb 70f -
1:36am 10 11 mph 1018.9mb 70f -
1:30am 10 13 mph 1018.9mb 70f 68f
1:24am 10 13 mph 1018.9mb 70f 68f
1:18am 10 14 mph 1019mb 70f 68f
1:12am 9 14 mph 1019.1mb 70f 68f
1:06am 11 15 mph 1019.1mb 70f 68f
1:00am 9 11 mph 1019.2mb 69f 68f
12:54am 10 14 mph 1019.2mb 69f 68f
12:48am 9 13 mph - - -
12:42am 10 11 mph - - -
12:36am 8 13 mph - - -
12:30am 9 13 mph 1019.2mb 69f 67f
12:24am 9 11 mph 1019.3mb 69f 68f
12:18am 10 11 mph 1019.4mb 69f 68f
12:12am 10 11 mph 1019.4mb 69f 68f
12:06am 9 11 mph 1019.5mb 69f 68f
12:00am 9 13 mph 1019.5mb 69f 68f
Tue 03/21 11:54pm 9 11 mph 1019.5mb 69f 68f
11:48pm 10 13 mph 1019.5mb 69f 68f
11:42pm 11 14 mph 1019.4mb 69f 67f
11:36pm 9 11 mph 1019.4mb 69f 67f
11:30pm 10 11 mph 1019.4mb 69f 67f
11:24pm 9 11 mph 1019.4mb 69f 67f
11:18pm 9 10 mph 1019.3mb 69f 67f
11:12pm 9 11 mph 1019.3mb 69f 67f
11:06pm 8 10 mph 1019.2mb 69f 67f
11:00pm 9 11 mph 1019.2mb 69f 67f
10:54pm 9 11 mph 1019.1mb 69f 67f
10:48pm 9 10 mph 1019.2mb 69f 67f
10:42pm 9 10 mph 1019.1mb 69f 67f
10:36pm 9 11 mph 1019.2mb 69f 67f
10:30pm 9 11 mph 1019.2mb 69f 67f
10:24pm 9 11 mph 1019.2mb 69f 67f
10:18pm 9 11 mph 1019.3mb 69f 67f
10:12pm 9 10 mph 1019.3mb 69f 67f
10:06pm 9 10 mph 1019.2mb 69f 67f
10:00pm 9 11 mph 1019.2mb 69f 67f
9:54pm 9 11 mph 1019.2mb 69f 67f
9:48pm 9 11 mph 1019.2mb 69f 67f
9:42pm 9 10 mph 1019.1mb 69f 67f
9:36pm 9 10 mph 1019.1mb 69f 67f
9:30pm 10 11 mph 1019.1mb 69f 68f
9:24pm 10 11 mph 1019.1mb 69f 68f
9:18pm 9 11 mph 1019.1mb 69f 68f
9:12pm 9 10 mph 1019.1mb 69f 68f
9:06pm 9 11 mph 1019mb 69f 68f
9:00pm 10 14 mph 1019mb 69f 68f
8:54pm 10 14 mph 1019mb 69f 68f
8:48pm 13 14 mph 1019mb 69f 68f
8:42pm 13 14 mph 1019mb 69f 68f
8:36pm 10 13 mph 1019mb 69f 68f
8:30pm 10 13 mph 1019mb 69f 68f
8:24pm 10 13 mph 1019mb 69f 68f
8:18pm 10 14 mph 1018.9mb 69f 68f
8:12pm 13 14 mph 1018.7mb 69f 68f
8:06pm 11 14 mph 1018.5mb 69f 68f
8:00pm 11 14 mph 1018.4mb 69f 67f
7:54pm 10 13 mph 1018.3mb 69f 67f
7:48pm 11 13 mph 1018.1mb 69f 67f
7:42pm 11 13 mph 1018.1mb 69f 67f
7:36pm 11 13 mph 1018.1mb 69f 67f
7:30pm 11 13 mph 1018.1mb 69f 67f
7:24pm 10 14 mph 1018.1mb 69f 68f
7:18pm 11 14 mph 1018.1mb 68f 68f
7:12pm 11 15 mph 1018.2mb 68f 68f
7:06pm 11 15 mph 1018.2mb 68f 68f
7:00pm 13 15 mph 1018.3mb 68f 68f
6:54pm 13 16 mph 1018.4mb 68f 68f
6:48pm 13 15 mph 1018.4mb 68f 68f
6:42pm 14 16 mph 1018.4mb 68f 68f
6:36pm 13 16 mph 1018.4mb 68f 68f
6:30pm 15 18 mph 1018.5mb 68f 68f
6:24pm 15 16 mph 1018.5mb 68f 68f
6:18pm 15 17 mph 1018.6mb 68f 68f
6:12pm 14 17 mph 1018.7mb 68f 68f
6:06pm 15 20 mph 1018.7mb 68f 68f
6:00pm 14 20 mph 1018.7mb 68f 68f
5:54pm 16 18 mph 1018.8mb 68f 68f
5:48pm 15 18 mph 1018.8mb 68f 69f
5:42pm 15 20 mph 1018.8mb 68f 69f
5:36pm 16 18 mph 1018.8mb 68f 69f
5:30pm 15 20 mph 1018.8mb 68f 69f
5:24pm 16 20 mph 1018.7mb 68f 69f
5:18pm 16 18 mph 1018.7mb 68f 69f
5:12pm 16 20 mph 1018.8mb 68f 69f
5:06pm 14 20 mph 1018.9mb 68f 69f
5:00pm 15 20 mph 1018.9mb 68f 69f
4:54pm 16 20 mph 1019mb 68f 69f
4:48pm 16 17 mph 1019mb 68f 69f
4:42pm 15 21 mph 1019.1mb 68f 69f
4:36pm 16 21 mph 1019.1mb 68f 69f
4:30pm 16 20 mph 1019.1mb 68f 69f
4:24pm 15 20 mph 1019.1mb 68f 69f
4:18pm 16 20 mph 1019.1mb 68f 69f
4:12pm 17 20 mph 1019.1mb 67f 68f
4:06pm 17 21 mph 1019.1mb 67f 68f
4:00pm 16 21 mph 1019.1mb 67f 68f
3:54pm 17 21 mph 1019.2mb 67f 68f
3:48pm 18 22 mph 1019.3mb 67f 68f
3:42pm 16 20 mph 1019.4mb 67f 68f
3:36pm 16 17 mph 1019.4mb 67f 68f
3:30pm 14 17 mph 1019.5mb 67f 68f
3:24pm 15 17 mph 1019.5mb 67f 68f
3:18pm 14 16 mph 1019.5mb 67f 68f
3:12pm 14 16 mph 1019.5mb 67f 68f
3:06pm 14 16 mph 1019.5mb 67f 68f
3:00pm 14 17 mph 1019.6mb 67f 68f
2:54pm 15 17 mph 1019.6mb 67f 68f
2:48pm 14 18 mph 1019.6mb 67f 68f
2:42pm 14 17 mph 1019.7mb 67f 68f
2:36pm 16 17 mph 1019.8mb 67f 68f
2:30pm 14 16 mph 1019.9mb 67f 68f
2:24pm 14 17 mph 1020mb 67f 68f
2:18pm 15 16 mph 1020mb 67f 68f
2:12pm 14 15 mph 1020.1mb 67f 68f
2:06pm 14 15 mph 1020.2mb 67f 68f
2:00pm 13 14 mph 1020.2mb 67f 68f
1:54pm 13 14 mph 1020.3mb 67f 68f
1:48pm 13 14 mph 1020.5mb 67f 68f
1:42pm 13 14 mph 1020.6mb 67f 68f
1:36pm 14 15 mph 1020.7mb 67f 68f
1:30pm 15 16 mph 1020.8mb 67f 68f
1:24pm 14 16 mph 1021mb 67f 68f
1:18pm 15 16 mph 1021mb 67f 68f
1:12pm 15 16 mph 1021mb 67f 68f
1:06pm 14 15 mph 1021.1mb 67f 68f
1:00pm 13 15 mph 1021.2mb 67f 68f
12:54pm 14 15 mph 1021.3mb 67f 68f
12:48pm 11 14 mph 1021.3mb 66f 68f
12:42pm 13 14 mph 1021.4mb 66f 68f
12:36pm 13 14 mph 1021.5mb 66f 68f
12:30pm 13
mph
1021.5mb 66f 68f
12:24pm 11 14 mph 1021.6mb 66f 68f
12:18pm 11 13 mph 1021.7mb 66f 68f
12:12pm 11 13 mph 1021.7mb 66f 68f
12:06pm 10 13 mph 1021.7mb 66f 68f
12:00pm 10 13 mph 1021.8mb 66f 68f
11:54am 10 11 mph 1021.8mb 66f 68f
11:48am 10 13 mph 1021.9mb 66f 68f
11:42am 11 13 mph 1021.9mb 66f 68f
11:36am 10 11 mph 1021.9mb 66f 68f
11:30am 10 13 mph 1022mb 66f 68f
11:24am 11 13 mph 1022.1mb 66f 68f
11:18am 10 13 mph 1022.1mb 66f 68f
11:12am 11 13 mph 1022.2mb 66f 68f
11:06am 11 14 mph 1022.2mb 66f 68f
11:00am 10 13 mph 1022.3mb 66f 68f
10:54am 10 11 mph 1022.3mb 66f 68f
10:48am 10 11 mph 1022.4mb 66f 68f
10:42am 10 13 mph 1022.4mb 66f 68f
10:36am 11 14 mph 1022.4mb 66f 67f
10:30am 10 13 mph 1022.4mb 66f 67f
10:24am 9 10 mph 1022.4mb 66f 67f
10:18am 10 11 mph 1022.4mb 66f 67f
10:12am 9 11 mph 1022.4mb 66f 67f
10:06am 10 11 mph 1022.3mb 66f 67f
10:00am 10 14 mph 1022.3mb 66f 67f
9:54am 10 13 mph 1022.2mb 66f 67f
9:48am 11 13 mph 1022.2mb 66f 67f
9:42am 10 11 mph 1022.1mb 67f 67f
9:36am 11 13 mph 1022.1mb 67f 68f
9:30am 11 14 mph 1022.1mb 67f 67f
9:24am 13 14 mph 1022.2mb 67f 68f
9:18am 13 14 mph 1022.1mb 67f 67f
9:12am 11 15 mph 1022.1mb 67f 67f
9:06am 10 13 mph 1022mb 67f 67f
9:00am 9 13 mph 1022mb 67f 67f
8:54am 10 13 mph 1022mb 67f 67f
8:48am 11 14 mph 1022mb 67f 67f
8:42am 9 11 mph 1021.9mb 67f 67f
8:36am 9 11 mph 1021.8mb 67f 67f
8:30am 9 11 mph 1021.8mb 67f 67f
8:24am 10 11 mph 1021.7mb 67f 67f
8:18am 10 11 mph 1021.7mb 67f 67f
8:12am 9 11 mph 1021.6mb 67f 67f
8:06am 9 11 mph 1021.6mb 67f 67f
8:00am 9 10 mph 1021.6mb 67f 67f
7:54am 9 10 mph 1021.4mb 67f 67f
7:48am 8 10 mph 1021.3mb 67f 67f
7:42am 7 9 mph 1021.3mb 67f 67f
7:36am 8 9 mph 1021.2mb 67f 67f
7:30am 7 10 mph 1021.2mb 67f 67f
7:24am 10 16 mph 1021.2mb 67f 67f
7:18am 13 18 mph 1021.1mb 67f 67f
7:12am 13 15 mph 1021.1mb 67f 67f
7:06am 13 15 mph 1021mb 67f 67f
7:00am 11 14 mph 1020.9mb 67f 67f
6:54am 11 14 mph 1020.9mb 67f 67f
6:48am 14 16 mph 1020.8mb 67f 67f
6:42am 15 17 mph 1020.8mb 67f 67f
6:36am 13 15 mph 1020.7mb 67f 67f
6:30am 13 15 mph 1020.6mb 67f 67f
6:24am 13 15 mph 1020.5mb 67f 67f
6:18am 14 17 mph 1020.5mb 67f 66f
6:12am 14 17 mph 1020.5mb 67f 66f
6:06am 9 13 mph 1020.5mb 67f 65f
6:00am 6 8 mph 1020.4mb 67f 65f
5:54am 6 7 mph 1020.4mb 67f 65f
5:48am 6
mph
1020.4mb 67f 65f
5:42am 6
mph
1020.4mb 67f 65f
5:36am 6 7 mph 1020.4mb 67f 65f
5:30am 6 7 mph 1020.3mb 67f 65f
5:24am 6 8 mph 1020.2mb 67f 65f
5:18am 7 8 mph 1020.1mb 67f 65f
5:12am 8 9 mph 1020mb 67f 65f
5:06am 7 8 mph 1019.9mb 67f 65f
5:00am 7 8 mph 1020mb 67f 65f
4:54am 6 7 mph 1020mb 67f 65f
4:48am 6 7 mph 1020.1mb 67f 65f
4:42am 6
mph
1020.1mb 67f 65f
4:36am 5
mph
1020.2mb 67f 65f
4:30am 5
mph
1020.3mb 67f 65f
4:24am 5 6 mph 1020.3mb 67f 65f
4:18am 6
mph
1020.3mb 67f 65f
4:12am 6
mph
1020.3mb 67f 65f
4:06am 6
mph
1020.3mb 67f 65f
4:00am 6
mph
1020.3mb 67f 65f
3:54am 6
mph
1020.3mb 67f 65f
3:48am 6
mph
1020.3mb 67f 65f
3:42am 5 6 mph 1020.3mb 67f 65f
3:36am 5 6 mph 1020.4mb 67f 65f
3:30am 5
mph
1020.3mb 67f 65f
3:24am 3 5 mph 1020.3mb 67f 64f
3:18am 5
mph
1020.3mb 67f 64f
3:12am 5
mph
1020.4mb 67f 64f
3:06am 5
mph
1020.5mb 67f 64f
3:00am 2
mph
1020.6mb 67f 64f
2:54am 1 2 mph 1020.7mb 67f 64f
2:48am  -  2 mph 1020.7mb 67f 64f
2:42am 2
mph
1020.7mb 67f 64f
2:36am 2 3 mph 1020.7mb 67f 64f
2:30am 3 5 mph 1020.7mb 67f 64f
2:24am 2 3 mph 1020.7mb 67f 64f
2:18am 2 3 mph 1020.7mb 67f 64f
2:12am 2 3 mph 1020.7mb 67f 64f
2:06am 2 3 mph 1020.8mb 67f 65f
2:00am 3 5 mph 1020.8mb 67f 64f
1:54am 3
mph
1020.9mb 67f 64f
1:48am 2 3 mph 1020.9mb 67f 64f
1:42am 2 3 mph 1021mb 67f 64f
1:36am 2 5 mph 1021mb 67f 65f
1:30am 5
mph
1021.1mb 67f 65f
1:24am 2 6 mph 1021.1mb 67f 64f
1:18am 5
mph
1021.1mb 67f 64f
1:12am 3 5 mph 1021.2mb 67f 64f
1:06am 3 5 mph 1021.2mb 67f 63f
1:00am 2 5 mph 1021.2mb 67f 64f
12:54am 2 3 mph 1021.2mb 67f 64f
12:48am 2 3 mph 1021.2mb 67f 64f
12:42am 2 3 mph 1021.3mb 67f 64f
12:36am 3 5 mph 1021.3mb 67f 65f
12:30am 3 5 mph 1021.4mb 67f 65f
12:24am 5
mph
1021.4mb 67f 65f
12:18am 3 5 mph 1021.4mb 67f 65f
12:12am 3 5 mph 1021.5mb 67f 65f
12:06am 3 6 mph 1021.5mb 67f 65f
12:00am 3 5 mph 1021.5mb 67f 65f
Mon 03/20 11:54pm 5 6 mph 1021.5mb 67f 65f
11:48pm 3 5 mph 1021.7mb 67f 65f
11:42pm 5 6 mph 1021.8mb 67f 65f
11:36pm 5 6 mph 1021.8mb 67f 65f
11:30pm 3 5 mph 1021.8mb 67f 64f
11:24pm 3 5 mph 1021.8mb 67f 64f
11:18pm 3 5 mph 1021.8mb 67f 64f
11:12pm 3 5 mph 1021.8mb 67f 64f
11:06pm 3 5 mph 1021.7mb 67f 64f
11:00pm 5 6 mph 1021.7mb 67f 65f
10:54pm 5
mph
1021.7mb 67f 65f
10:48pm 3 5 mph 1021.7mb 67f 65f
10:42pm 3 5 mph 1021.7mb 67f 65f
10:36pm 3
mph
1021.7mb 67f 64f
10:30pm 2 5 mph 1021.7mb 67f 65f
10:24pm 3 5 mph 1021.7mb 67f 65f
10:18pm 5 6 mph 1021.6mb 67f 65f
10:12pm 5 6 mph 1021.6mb 67f 66f
10:06pm 5 6 mph 1021.6mb 67f 66f
10:00pm 5 6 mph 1021.5mb 67f 66f
9:54pm 5 6 mph 1021.5mb 67f 65f
9:48pm 5 6 mph 1021.4mb 67f 65f
9:42pm 5 6 mph 1021.4mb 67f 65f
9:36pm 5 6 mph 1021.4mb 67f 65f
9:30pm 5
mph
1021.3mb 67f 65f
9:24pm 5
mph
1021.3mb 67f 65f
9:18pm 5
mph
1021.3mb 67f 65f
9:12pm 5
mph
1021.3mb 67f 65f
9:06pm 5 6 mph 1021.3mb 67f 65f
9:00pm 5 6 mph 1021.3mb 67f 65f
8:54pm 3 5 mph 1021.3mb 67f 66f
8:48pm 3 5 mph 1021.3mb 67f 65f
8:42pm 3 5 mph 1021.3mb 67f 66f
8:36pm 3 5 mph 1021.2mb 67f 65f
8:30pm 3 5 mph 1021.2mb 67f 65f
8:24pm 3 5 mph 1021.3mb 67f 66f
8:18pm 5
mph
1021.2mb 67f 66f
8:12pm 5
mph
1021.3mb 67f 66f
8:06pm 5
mph
1021.3mb 67f 66f
8:00pm 5
mph
1021.3mb 67f 67f
7:54pm 5 6 mph 1021.2mb 67f 67f
7:48pm 6 7 mph 1021.2mb 67f 67f
7:42pm 6
mph
1021.3mb 66f 67f
7:36pm 6 7 mph 1021.3mb 66f 67f
7:30pm 6 7 mph 1021.2mb 66f 67f
7:24pm 7 8 mph 1021.2mb 66f 67f
7:18pm 7 8 mph 1021.2mb 66f 67f
7:12pm 8 9 mph 1021.1mb 66f 67f
7:06pm 8 9 mph 1021.1mb 66f 67f
7:00pm 8 9 mph 1021.2mb 66f 67f
6:54pm 7 9 mph 1021.2mb 66f 67f
6:48pm 8 9 mph 1021.2mb 66f 67f
6:42pm 8 9 mph 1021.2mb 66f 67f
6:36pm 8 10 mph 1021.2mb 66f 68f
6:30pm 8 10 mph 1021.2mb 66f 68f
6:24pm 9 10 mph 1021.2mb 66f 68f
6:18pm 8 9 mph 1021.2mb 66f 68f
6:12pm 8 9 mph 1021.2mb 66f 68f
6:06pm 8 10 mph 1021.1mb 66f 68f
6:00pm 9 11 mph 1021.2mb 66f 68f
5:54pm 9 11 mph 1021.2mb 66f 68f
5:48pm 11 13 mph 1021.2mb 66f 69f
5:42pm 9 13 mph 1021.3mb 66f 68f
5:36pm 10 13 mph 1021.3mb 66f 68f
5:30pm 10 13 mph 1021.3mb 66f 68f
5:24pm 11 14 mph 1021.3mb 66f 68f
5:18pm 11 15 mph 1021.3mb 66f 68f
5:12pm 13 14 mph 1021.3mb 66f 68f
5:06pm 13 14 mph 1021.4mb 66f 68f
5:00pm 13 15 mph 1021.4mb 66f 68f
4:54pm 13 15 mph 1021.4mb 66f 68f
4:48pm 13 15 mph 1021.3mb 66f 68f
4:42pm 13 16 mph 1021.3mb 66f 68f
4:36pm 15 17 mph 1021.3mb 66f 68f